www.pogodaiklimat.ru

Погода и климат >> Архив погоды >> Малайзия >> Langkawi


ПОГОДА в Langkawi

  • Прогноз погоды в Langkawi
  • Монитор погоды в Langkawi
  • Климат города

АРХИВ ПОГОДЫ в Langkawi

Время (UTC), дата Ветер
(напр.,м/с)
 
Видим.   Явления Облачность Т
(С)
Тd
(С)
f
(%)
Тe
(С)
Тes
(С)
Комфортность P
(гПа)
Po
(гПа)
Тmin
(С)
Tmax
(С)
R
(мм)
R24
(мм)
S
(см)
12 12.10 СВ 1 16 км зарница {гроза} 9/4 500 м
[Cb cap Ac lent Ci sp]
+26.9 +25.1 90 +39 +39 очень
душно
1012.5 1011.7 +31.2 3
18 12.10 штиль 0 10 км слабый дождь 10/5 300 м
[Sc As trans Cs]
+25.6 +24.4 93 +36 +36 очень
душно
1012.4 1011.6 0.2
00 13.10 ЮВ 1 16 км 9/4 500 м
[Cb cap Ac lent Ci sp]
+25.7 +24.4 93 +36 +36 очень
душно
1012.6 1011.8 +25.2 3
03 13.10 ЮВ 1 16 км 9/4 500 м
[Cb cap Ac lent Ci sp]
+25.7 +24.4 93 +36 +41 очень
душно
1012.6 1011.8 +25.2 3
06 13.10 З 3 12 км осадки на расстоянии 9/5 660 м
[Cb cap Ac trans Ci sp]
+30.3 +25.3 75 +44 +49 опасность
перегрева
1011.9 1011.1
12 13.10 СВ 2 12 км в посл. час гроза {дождь} 9/5 300 м
[Cb cap Ac lent Ci sp]
+27.0 +25.2 90 +39 +39 очень
душно
1012.0 1011.2 +30.4 4
18 13.10 СВ 1 16 км 9/3 750 м
[Cb cap Ac lent Ci sp]
+26.8 +25.0 90 +39 +39 очень
душно
1012.3 1011.5
00 14.10 штиль 0 15 км 9/4 500 м
[Cb cap Ac lent Ci sp]
+26.0 +24.6 92 +37 +37 очень
душно
1012.3 1011.5 +25.4 4
06 14.10 ЮЗ 2 15 км мгла 9/4 600 м
[Cu med, cong Ac lent Ci sp]
+30.0 +25.1 75 +43 +51 опасность
перегрева
1011.5 1010.7
12 14.10 штиль 0 13 км мгла 9/1 720 м
[Sc Ac lent Ci sp]
+28.1 +24.7 82 +40 +40 очень
душно
1011.2 1010.4 +30.2
18 14.10 В 2 10 км гроза без осадков 9/4 500 м
[Cb cap Ac lent Ci sp]
+26.7 +24.8 89 +38 +38 очень
душно
1012.2 1011.4
00 15.10 З 1 13 км мгла 9/4 500 м
[Cb cap Ac lent Ci sp]
+27.1 +24.2 84 +38 +38 очень
душно
1012.5 1011.7 +25.5 0.2
06 15.10 ЮЗ 3 14 км осадки на расстоянии 9/4 500 м
[Cb cap Ac lent Ci sp]
+30.7 +25.9 76 +46 +52 опасность
перегрева
1011.0 1010.2
12 15.10 СВ 4 8000 м слабый дождь 10/6 300 м
[Cb cap As trans Cs]
+26.9 +25.1 90 +39 +39 очень
душно
1011.3 1010.5 +30.7 5
18 15.10 СВ 1 9000 м гроза, ливневой дождь 9/5 300 м
[Cb cap Ac lent Ci sp]
+24.8 +24.0 95 +34 +34 очень
душно
1012.2 1011.3 14
00 16.10 СВ 2 10 км дымка {гроза, ливн. осадки} 9/5 150 м
[Cb cap Ac As Ci sp]
+25.0 +24.2 95 +34 +35 очень
душно
1012.8 1011.9 +24.5 19
06 16.10 ЮЗ 2 16 км {дождь} 9/4 600 м
[Cu med, cong Ac lent Ci sp]
+29.5 +25.1 77 +43 +49 опасность
перегрева
1011.7 1010.9 0.4
12 16.10 З 2 18 км 9/4 660 м
[Cu Sc Ac lent Ci sp]
+28.0 +24.4 81 +39 +39 очень
душно
1011.4 1010.6 +29.9
18 16.10 В 2 16 км 9/3 800 м
[Sc Ac lent Ci sp]
+26.1 +24.4 90 +36 +36 очень
душно
1012.2 1011.4
00 17.10 В 1 12 км осадки на расстоянии 9/4 500 м
[Cb cap Ac lent Ci sp]
+26.6 +24.5 88 +37 +38 очень
душно
1011.9 1011.1 +25.0 0.4
06 17.10 ЮЗ 3 8000 м гроза, ливневой дождь 9/6 300 м
[Cb cap Ac lent Cs]
+26.9 +25.0 89 +39 +43 очень
душно
1011.8 1011.0 4
12 17.10 штиль 0 15 км 9/3 660 м
[Cu med, cong Ac lent Ci sp]
+27.3 +25.5 90 +40 +40 очень
душно
1010.0 1009.2 +30.9 0.2
18 17.10 штиль 0 16 км 9/3 800 м
[Sc Ac trans Ci sp]
+26.3 +25.1 93 +38 +38 очень
душно
1010.7 1009.9
00 18.10 СЗ 1 12 км слабый дождь 9/4 300 м
[Cu med, cong As trans Cs]
+25.6 +24.4 93 +36 +36 очень
душно
1010.8 1010.0 +24.9 11
06 18.10 штиль 0 4000 м слабый дождь {гроза} 10/5 300 м
[Sc As trans Cs]
+24.9 +23.8 94 +34 +41 очень
душно
1011.4 1010.5 67
12 18.10 штиль 0 10 км слабый дождь 9/4 240 м
[Sc As trans Cs]
+24.4 +23.7 96 +33 +33 очень
душно
1011.2 1010.3 +27.3 21
18 18.10 штиль 0 10 км в посл. час дождь 9/4 300 м
[Sc Ac lent Ci sp]
+24.4 +23.5 95 +33 +33 очень
душно
1012.3 1011.4 8
00 19.10 СЗ 3 13 км мгла 9/3 660 м
[Cu med, cong Ac lent Cs]
+26.4 +22.5 79 +35 +35 очень
душно
1012.1 1011.2 +24.0 96
06 19.10 З 3 14 км мгла 9/3 660 м
[Cu med, cong Ac lent Ci sp]
+30.1 +23.8 69 +41 +48 опасность
перегрева
1010.5 1009.7

 

Местоположение метеостанции Langkawi (Малайзия): широта 6.33 долгота 99.73 высота над уровнем моря 7 м.

В архиве по умолчанию представлена погода в Langkawi за последнюю неделю. Архивные данные за месяц целиком и за предыдущие месяцы, начиная с января 2011 года, Вы можете получить, выбрав интересующий диапазон дат из раскрывающегося списка и нажав кнопку "Ввод!".


*Определитесь, кто Вы:
робот инопланетянин человек

Внимание! Время в таблицах - всемирное. Для получения местного времени необходимо прибавить поправку, которая в Langkawi равна 7 ч.

Смотрите также архив погоды в соседних городах и на ближайших метеорологических станциях:

Погода в Satun (Таиланд) (53 км)
Погода в Kho Hong Agromet (Таиланд) (53 км)
Погода в Alor Star (Малайзия) (75 км)
Погода в Sadao (Таиланд) (91 км)
Погода в Hat Yai (Таиланд) (101 км)
Погода в Butterworth Air Base (Малайзия) (120 км)
Погода в Penang (Малайзия) (129 км)
Погода в Trang (Таиланд) (133 км)
Погода в Songkhla (Таиланд) (137 км)
Погода в Phatthalung Agromet (Таиланд) (147 км)

Пояснения к столбцам:

Ветер - указаны скорость ветра в м/с - средняя за 10 мин, порывы в срок и между сроками (в фигурных скобках) и направление, откуда дует ветер: С - северный, СВ - северо-восточный, В - восточный, ЮВ - юго-восточный, Ю - южный, ЮЗ - юго-западный, З - западный, СЗ - северо-западный.
Видимость - горизонтальная дальность видимости в метрах или километрах. При видимости от 1 до 10 км при отсутствии осадков обычно наблюдается дымка, при ухудшении видимости до 1 км и менее - туман. В сухую погоду видимость может ухудшаться дымом, пылью или мглою.
Явления - указаны атмосферные явления, наблюдавшиеся в срок или в последний час перед сроком; фигурными скобками обозначены явления, наблюдавшиеся между сроками (за 1-3 часа до срока); квадратными скобками обозначены град или гололедные отложения с указанием их диаметра в мм.
Облачность - указаны через наклонную черту общая и нижняя облачность в баллах и высота нижней границы облаков в метрах; квадратными скобками обозначены формы облаков: Ci - перистые, Cs - перисто-слоистые, Cc - перисто-кучевые, Ac - высококучевые, As - высокослоистые, Sc - слоисто-кучевые, Ns - слоисто-дождевые, Cu - кучевые, Cb - кучево-дождевые. Подробнее классификацию облаков см. в Атласе облаков (PDF).
T - Температура воздуха - температура, измеренная на высоте 2 м над землей.
Td - Температура точки росы - температура, при понижении до которой содержащийся в воздухе водяной пар достигнет насыщения.
f - Относительная влажность воздуха - влажноcть воздуха, измеренная на высоте 2 м над землей.
Te - Эффективная температура - температура, которую ощущает одетый по сезону человек в тени. Характеристика душности погоды. При расчете учитывается влияние влажности воздуха и скорости ветра на теплоощущения человека.
Tes - Эффективная температура на солнце - температура, которую ощущает человек, с поправкой на солнечный нагрев. Характеристика знойности погоды. Зависит от высоты солнца над горизонтом, облачности и скорости ветра. Ночью, в пасмурную погоду, а также при ветре 12 м/с и более поправка равна нулю.
P - Атмосферное давление - приведенное к уровню моря атмосферное давление.
Po - Атмосферное давление - измеренное на уровне метеостанции атмосферное давление.
Tmin - Минимальная температура - минимум температуры воздуха на высоте 2 м над землей.
Tmax - Максимальная температура - максимум температуры воздуха на высоте 2 м над землей.
R - Количество осадков - Количество выпавших осадков за период времени, мм. При наведении курсора мыши на число - период времени, за который выпало указанное количество осадков.
R24 - Количество осадков - Количество выпавших осадков за 24 часа, мм.
S - Снежный покров - Высота снежного покрова, см. При наведении курсора мыши на число - состояние снежного покрова и степень покрытия местности в баллах.